sat.trackr.live / text

‹ back to catalog

STARLINK-2640

NORAD 48438 · 2021-040L

PAYLOAD ACTIVE UNKNOWN

§ Identity

Operator
Country
US
Launch date
2021-05-09
Launch site
AFETR
Launch vehicle
Mass (kg)
RCS (m²)

Purposes: comms

External: N2YO · Heavens-Above · Gunter

§ Orbital elements

Epoch: 2026-09-19T21:21:32.335776Z

Period
94.01 min
Inclination
53.1602°
Eccentricity
0.0001167
Mean motion
15.31704647 rev/d
Perigee alt
469.9 km
Apogee alt
471.5 km
Semi-major
6,848.9 km
B*
2.8484e-5
RAAN
354.4374°
Arg perigee
109.6291°
Mean anomaly
250.4836°
Rev number
29,643

§ Raw data

STARLINK-26401 48438U 21040L   26262.88995759  .00000519  00000+0  28484-4 0  99962 48438  53.1602 354.4374 0001167 109.6291 250.4836 15.31704647296439

JSON: /api/v1/satellites/48438 · /tle

For live sub-satellite position, see the globe view (requires WebGL).

§ Visibility from observer

Set your observer location to see the next 7 days of passes ≥ 10°. The values pass through the URL so the page stays shareable.

No JS? Fill the form by hand. The geolocation button needs JavaScript.